Home   Weather   Villavicencio   Past weeks

Flag for Colombia Past Weather in Villavicencio, Colombia — Yesterday and Last 2 Weeks

Now
57 °F

Passing clouds.


Feels Like: 57 °F
Forecast: 66 / 88 °F
Wind: 5 mph from Northeast

Location: Bogota / Eldorado

Current Time: Apr 29, 2017 at 8:35:42 pm

Latest Report: Apr 29, 2017 at 8:00 pm


Visibility: N/A

Pressure: 30.36 "Hg

Humidity: 77%

Dew Point: 50 °F

Location of VillavicencioLocation

Past Weather in Villavicencio — Graph

°F

Villavicencio Temperature Yesterday

Maximum temperature yesterday: 64 °F (at 2:00 pm)
Minimum temperature yesterday: 50 °F (at 6:00 am)
Average temperature yesterday: 58 °F

High & Low Weather Summary for the Past Weeks

 TemperatureHumidityPressure
High72 °F (Apr 27, 2:00 pm)100% (Apr 22, 2:00 am)30.41 "Hg (Apr 22, 2:00 am)
Low43 °F (Apr 27, 5:30 am)33% (Apr 27, 12:00 pm)30.21 "Hg (Apr 23, 4:00 pm)
Average58 °F76%30.33 "Hg
* Reported Apr 14 7:00 pm — Apr 29 7:00 pm, Villavicencio, Weather by CustomWeather, © 2017

Note: Actual official high and low records may vary slightly from our data, if they occured in-between our weather recording intervals... More about our weather records

Advertising

Villavicencio Weather History for the Previous 24 Hours

Scroll right to see more
 ConditionsComfort  
Time TempWeatherWind HumidityBarometerVisibility
7:00 pm
Sat, Apr 29
61 °FPassing clouds.5 mph63%30.33 "HgN/A
6:00 pm61 °FScattered showers. Broken clouds.6 mph63%30.31 "HgN/A
5:00 pm61 °FScattered showers. Partly sunny.7 mph68%30.28 "HgN/A
4:00 pm63 °FScattered showers. Partly sunny.9 mph64%30.26 "HgN/A
3:00 pm64 °FBroken clouds.8 mph52%30.28 "HgN/A
2:00 pm66 °FBroken clouds.6 mph52%30.30 "HgN/A
1:00 pm63 °FScattered showers. Broken clouds.7 mph56%30.33 "HgN/A
12:00 pm63 °FScattered showers. Broken clouds.9 mph59%30.36 "HgN/A
11:00 am63 °FScattered showers. Broken clouds.7 mph59%30.37 "HgN/A
10:00 am63 °FScattered showers. Broken clouds.5 mph64%30.38 "HgN/A
9:00 am61 °FPartly sunny.9 mph63%30.39 "HgN/A
8:00 am57 °FScattered clouds.7 mph77%30.38 "HgN/A
7:00 am55 °FScattered clouds.7 mph82%30.36 "HgN/A
6:00 am54 °FPartly sunny.7 mph82%30.35 "HgN/A
5:30 am52 °FPassing clouds.8 mph88%30.35 "HgN/A
5:00 am52 °FPassing clouds.7 mph88%30.34 "HgN/A
4:00 am52 °FPassing clouds.N/A88%30.33 "HgN/A
3:00 am54 °FCool.9 mph82%30.32 "HgN/A
2:00 am54 °FCool.N/A82%30.33 "HgN/A
1:00 am54 °FCool.N/A82%30.36 "HgN/A
12:00 am55 °FPartly cloudy.8 mph82%30.38 "HgN/A
11:00 pm
Fri, Apr 28
54 °FPartly cloudy.7 mph88%30.40 "HgN/A
10:00 pm55 °FPassing clouds.9 mph77%30.39 "HgN/A
9:00 pm54 °FPassing clouds.3 mph82%30.38 "HgN/A
8:00 pm57 °FPassing clouds.5 mph67%30.35 "HgN/A
Weather by CustomWeather, © 2017

See weather overviewHow to use our weather pages